TimeEST,TemperatureF,Dew PointF,Humidity,Sea Level PressureIn,VisibilityMPH,Wind Direction,Wind SpeedMPH,Gust SpeedMPH,PrecipitationIn,Events,Conditions,WindDirDegrees,DateUTC
12:51 AM,28.9,19.0,67,29.97,10.0,SW,9.2,-,N/A,,Overcast,230,2013-02-05 05:51:00
1:51 AM,28.0,23.0,81,29.97,7.0,SW,5.8,-,0.00,Snow,Light Snow,220,2013-02-05 06:51:00
2:51 AM,28.9,24.1,82,29.96,8.0,SW,3.5,-,0.00,Snow,Light Snow,230,2013-02-05 07:51:00
3:31 AM,28.4,24.8,86,29.95,7.0,Calm,Calm,-,0.00,Snow,Light Snow,0,2013-02-05 08:31:00
3:51 AM,28.9,24.1,82,29.95,6.0,Calm,Calm,-,0.00,Snow,Light Snow,0,2013-02-05 08:51:00
4:51 AM,28.9,25.0,85,29.93,8.0,NNE,3.5,-,0.01,,Overcast,30,2013-02-05 09:51:00
4:58 AM,28.4,24.8,86,29.93,8.0,North,3.5,-,N/A,,Overcast,10,2013-02-05 09:58:00
5:51 AM,28.9,25.0,85,29.94,8.0,NNE,3.5,-,0.00,Snow,Light Snow,20,2013-02-05 10:51:00
6:25 AM,28.4,24.8,86,29.94,5.0,ENE,4.6,-,0.00,Snow,Light Snow,60,2013-02-05 11:25:00
6:49 AM,28.4,24.8,86,29.95,3.0,NE,4.6,-,0.00,Snow,Light Snow,50,2013-02-05 11:49:00
6:51 AM,28.9,25.0,85,29.95,3.0,NE,4.6,-,0.00,Snow,Light Snow,50,2013-02-05 11:51:00
7:51 AM,28.9,26.1,89,29.96,6.0,NE,6.9,-,0.00,,Overcast,40,2013-02-05 12:51:00
8:42 AM,28.4,24.8,86,29.97,7.0,NE,10.4,-,N/A,,Overcast,40,2013-02-05 13:42:00
8:51 AM,28.9,24.1,82,29.97,8.0,NNE,8.1,-,N/A,,Overcast,30,2013-02-05 13:51:00
9:51 AM,30.0,25.0,82,29.97,7.0,NE,8.1,-,N/A,,Overcast,50,2013-02-05 14:51:00
10:51 AM,30.9,26.1,82,29.99,8.0,NNE,8.1,-,N/A,,Overcast,20,2013-02-05 15:51:00
11:51 AM,30.9,26.1,82,29.97,7.0,NE,9.2,-,N/A,,Overcast,40,2013-02-05 16:51:00
12:51 PM,30.9,26.1,82,29.96,7.0,NE,6.9,-,N/A,,Overcast,40,2013-02-05 17:51:00
1:51 PM,30.9,26.1,82,29.93,5.0,NE,8.1,-,0.00,Snow,Light Snow,40,2013-02-05 18:51:00
2:51 PM,30.9,26.1,82,29.92,7.0,NE,8.1,-,0.00,Snow,Light Snow,50,2013-02-05 19:51:00
3:51 PM,30.9,26.1,82,29.94,7.0,NE,3.5,-,0.00,Snow,Light Snow,40,2013-02-05 20:51:00
4:51 PM,30.9,26.1,82,29.93,8.0,NNE,3.5,-,0.00,,Overcast,30,2013-02-05 21:51:00
5:32 PM,30.2,26.6,86,29.92,8.0,NE,4.6,-,N/A,,Overcast,50,2013-02-05 22:32:00
5:51 PM,30.9,26.1,82,29.92,8.0,NE,5.8,-,N/A,,Overcast,40,2013-02-05 22:51:00
6:48 PM,30.2,26.6,86,29.92,8.0,NNE,6.9,-,N/A,,Overcast,30,2013-02-05 23:48:00
6:51 PM,30.9,26.1,82,29.93,8.0,NNE,5.8,-,N/A,,Overcast,20,2013-02-05 23:51:00
7:51 PM,30.9,26.1,82,29.92,8.0,NNE,4.6,-,0.00,Snow,Light Snow,20,2013-02-06 00:51:00
8:14 PM,30.2,26.6,86,29.93,7.0,North,5.8,-,0.00,Snow,Light Snow,360,2013-02-06 01:14:00
8:51 PM,30.9,26.1,82,29.93,7.0,NNE,6.9,-,0.00,Snow,Light Snow,20,2013-02-06 01:51:00
9:36 PM,30.2,26.6,86,29.93,7.0,NNE,4.6,-,0.00,Snow,Light Snow,30,2013-02-06 02:36:00
9:51 PM,30.9,27.0,85,29.93,7.0,NE,5.8,-,0.00,Snow,Light Snow,40,2013-02-06 02:51:00
10:51 PM,30.9,27.0,85,29.94,9.0,North,4.6,-,0.00,,Overcast,360,2013-02-06 03:51:00
11:51 PM,32.0,28.0,85,29.94,7.0,North,3.5,-,0.00,Snow,Light Snow,10,2013-02-06 04:51:00